User: anonymous   Login
Location: Unspecified
(0.0000°N, 0.0000°E)
Time: 04:55:24
(UTC+01:00)
Language:

CZ-4 R/B - Orbit

View from above orbital plane
View from above orbital plane
View from above satellite
View from above satellite

Ground track
Ground track

The orbit data is extracted from the following two-line orbital elements,

1 28059U 03049C   17050.24319966 -.00000042  00000-0  19842-5 0  9999
2 28059  98.5785 293.7170 0049068 246.5768 222.7124 14.52476581706558
Epoch (UTC): 19 February 2017 05:50:12
Eccentricity: 0.0049068
inclination: 98.5785°
perigee height: 683 km
apogee height: 752 km
right ascension of ascending node: 293.7170°
argument of perigee: 246.5768°
revolutions per day: 14.52476581
mean anomaly at epoch: 222.7124°
orbit number at epoch: 70655

The dashed part of the orbit path shows where the satellite is in the earth's shadow,  

DLR